GFSMA_850_dewp_021.txt.gz
Dewpoint
2 2 2 2 -1 -3 -3 -4 -5 -4 -5 -6 -9 -11 -12 -13 -13 -12 -8 -7 -7 -0 4 6 7 6 7 8 8 9 10 10 10 10 9 9 10 10 10 9 7 7 6
-1 -2 -3 -4 -5 -5 -5 -5 -5 -6 -6 -6 -8 -11 -11 -11 -11 -11 -11 -11 -11 -12 -9 -4 -0 4 6 5 6 6 7 7 9 10 10 9 11 11 11 11 9 7 8
-3 -3 -3 -4 -4 -5 -5 -5 -5 -5 -6 -8 -8 -10 -10 -9 -9 -8 -9 -9 -9 -9 -9 -9 -11 -12 -7 0 4 5 6 6 7 7 8 9 9 9 9 10 10 9 7
-4 -4 -4 -4 -4 -5 -5 -4 -4 -5 -6 -7 -8 -8 -8 -8 -8 -8 -9 -8 -8 -8 -9 -10 -9 -9 -9 -10 -8 -0 4 6 7 8 8 7 8 8 10 9 9 10 8
-3 -3 -3 -4 -4 -4 -5 -4 -4 -4 -5 -6 -7 -7 -7 -7 -7 -8 -8 -6 -7 -8 -9 -10 -10 -11 -10 -8 -7 -8 -5 0 4 8 9 8 8 8 8 9 10 10 10
-2 -2 -2 -2 -3 -3 -4 -4 -4 -4 -4 -5 -5 -6 -6 -6 -6 -7 -7 -7 -7 -8 -9 -8 -7 -8 -10 -12 -9 -5 -5 -3 4 2 5 8 8 8 8 8 9 10 10
-1 -1 -1 -1 -2 -2 -3 -3 -4 -3 -3 -4 -4 -5 -5 -5 -5 -6 -6 -7 -7 -7 -8 -7 -6 -7 -8 -9 -11 -12 -7 -4 -4 -2 -0 3 6 6 7 8 9 8 8
-0 -0 -0 -0 -0 -1 -2 -2 -2 -2 -2 -3 -3 -2 -2 -2 -4 -5 -5 -6 -6 -6 -7 -7 -6 -6 -6 -8 -9 -13 -15 -9 -4 -3 -2 -1 0 3 5 7 7 7 7
-0 -1 -1 -1 -1 -1 -1 -0 -1 -2 -1 -1 -2 -2 -1 -2 -2 -4 -5 -5 -5 -7 -7 -7 -6 -6 -6 -8 -10 -13 -16 -18 -12 -5 -4 -4 -3 -1 1 5 6 7 7
-3 -3 -3 -2 -2 -2 -2 -1 0 -1 -1 1 -0 -2 -3 -3 -2 -2 -3 -5 -6 -7 -8 -7 -7 -6 -6 -7 -9 -13 -18 -20 -21 -17 -9 -5 -5 -4 -3 -2 3 6 6
-8 -8 -7 -4 -4 -4 -4 -3 -2 -1 -0 1 1 -0 -2 -2 -2 -3 -3 -4 -7 -8 -7 -6 -5 -4 -5 -7 -11 -15 -17 -21 -24 -21 -15 -12 -10 -6 -6 -4 -4 0 5
-11 -9 -7 -6 -6 -5 -5 -3 -1 0 1 1 0 -1 -1 -2 -2 -3 -3 -3 -3 -2 -3 -3 -5 -6 -7 -9 -12 -15 -19 -21 -23 -23 -22 -13 -9 -12 -11 -8 -7 -5 1
-8 -6 -4 -4 -4 -4 -2 -1 -0 -1 -1 -1 -1 -1 -2 -1 -1 -2 -2 -2 -3 -3 -4 -5 -6 -7 -7 -7 -10 -18 -21 -21 -20 -20 -17 -16 -10 -3 -5 -3 -4 -6 -4
-6 -4 -3 -4 -3 -2 -1 -1 -1 -1 -1 -1 -1 -1 -1 -2 -2 -3 -3 -4 -4 -4 -5 -6 -7 -7 -8 -8 -7 -16 -21 -23 -17 -20 -22 -14 -8 -0 1 -0 -1 -2 -3
-4 -3 -2 -2 -1 -1 -1 -1 -1 -1 -2 -3 -3 -3 -4 -4 -5 -5 -5 -5 -5 -6 -8 -9 -10 -9 -8 -9 -8 -7 -8 -14 -24 -22 -23 -21 -17 -4 -1 -2 -3 -1 -0
-3 -2 -2 -1 -2 -2 -2 -3 -6 -7 -6 -5 -6 -6 -6 -7 -9 -11 -11 -6 -7 -8 -10 -12 -12 -10 -9 -9 -10 -8 -7 -9 -17 -21 -23 -24 -22 -18 -4 -3 -5 -4 -1
-2 -1 -2 -3 -2 -3 -4 -4 -5 -5 -6 -7 -8 -9 -10 -11 -12 -10 -9 -9 -9 -9 -9 -10 -9 -9 -8 -8 -8 -8 -8 -7 -8 -15 -19 -20 -22 -22 -19 -8 -6 -2 -3
-2 -3 -3 -3 -3 -4 -4 -5 -6 -7 -8 -9 -10 -12 -14 -14 -11 -9 -9 -8 -8 -8 -8 -9 -9 -9 -8 -8 -8 -8 -8 -9 -9 -8 -14 -19 -19 -19 -20 -19 -10 -5 -5
-3 -3 -3 -5 -7 -6 -6 -7 -8 -9 -10 -12 -14 -15 -15 -14 -11 -9 -9 -9 -9 -10 -10 -10 -10 -10 -10 -9 -9 -8 -8 -8 -8 -10 -17 -19 -20 -20 -21 -20 -17 -11 -7
-4 -5 -5 -6 -7 -6 -6 -7 -9 -11 -14 -15 -15 -15 -14 -13 -11 -10 -10 -10 -10 -10 -9 -9 -9 -9 -9 -9 -8 -8 -8 -7 -7 -7 -9 -13 -14 -16 -18 -20 -21 -19 -11
-6 -6 -4 -4 -5 -8 -10 -11 -13 -14 -14 -16 -17 -17 -16 -17 -17 -15 -11 -9 -9 -8 -8 -9 -8 -9 -9 -9 -8 -8 -8 -8 -8 -7 -7 -7 -7 -7 -8 -14 -18 -20 -20
-7 -8 -9 -10 -10 -11 -13 -13 -14 -15 -16 -17 -12 -12 -14 -13 -11 -12 -11 -11 -10 -9 -9 -9 -8 -9 -9 -9 -9 -9 -9 -8 -8 -7 -7 -7 -7 -7 -6 -6 -8 -15 -17
-10 -10 -11 -12 -13 -13 -13 -14 -15 -16 -15 -12 -12 -11 -10 -10 -10 -10 -10 -10 -9 -9 -10 -10 -9 -9 -9 -9 -9 -8 -8 -8 -8 -8 -8 -8 -8 -7 -7 -7 -6 -10 -12
-13 -12 -12 -12 -13 -14 -14 -15 -16 -16 -11 -11 -12 -10 -10 -10 -10 -10 -9 -10 -10 -9 -9 -9 -9 -9 -9 -9 -9 -9 -8 -8 -9 -8 -8 -8 -8 -8 -8 -7 -8 -7 -6
-13 -13 -13 -13 -13 -14 -14 -15 -15 -11 -11 -12 -10 -10 -10 -10 -10 -10 -10 -10 -9 -9 -9 -10 -10 -9 -9 -10 -9 -9 -9 -9 -9 -9 -9 -9 -8 -8 -8 -8 -11 -11 -8
-12 -12 -13 -13 -13 -13 -14 -15 -14 -11 -11 -11 -10 -10 -10 -10 -10 -10 -10 -10 -10 -10 -10 -10 -10 -9 -9 -9 -9 -9 -9 -9 -9 -9 -9 -8 -8 -8 -7 -7 -11 -11 -11

GFSMA_850_dewp_024.txt.gz
Dewpoint
9 9 8 7 7 7 7 7 6 7 5 -0 -4 -6 -7 -4 -9 -1 -0 -11 -12 -11 -10 -2 4 6 6 6 8 9 10 10 10 10 10 9 9 10 8 8 8 7 6
7 7 6 6 5 5 5 6 5 3 3 -0 -1 -7 -9 -1 -1 -8 -3 -5 -10 -9 -9 -10 -7 2 5 6 6 6 6 7 8 9 10 10 9 9 10 10 10 8 7
-3 -3 5 4 4 5 2 1 2 1 -2 1 -4 -6 -8 -7 -4 -8 -6 -1 -5 -8 -9 -9 -9 -9 -10 -10 -3 3 5 5 6 7 7 8 9 10 10 11 11 10 8
-2 -2 3 4 4 3 4 5 5 4 4 2 -0 -1 -1 -1 -2 -6 -4 -3 -2 -2 -6 -7 -8 -8 -9 -9 -10 -11 -8 0 5 7 7 7 7 8 9 10 10 10 10
-1 -2 -1 1 3 4 5 5 4 5 3 2 -0 -1 -1 -1 -1 -2 -2 -2 -1 -4 -2 -4 -9 -10 -9 -10 -10 -10 -9 -8 -5 2 6 7 8 7 8 8 9 10 9
-1 -1 -1 -0 3 4 4 4 5 4 4 2 -0 -2 -2 -1 -1 -1 -2 -2 -1 -1 -3 -2 -4 -4 -7 -8 -8 -9 -11 -9 -7 -8 -3 5 8 8 8 8 8 9 10
0 0 -0 -0 0 4 4 4 4 5 5 4 2 1 -0 -0 1 -0 -1 -1 -2 -1 -2 -1 -3 -4 -4 -6 -7 -9 -9 -11 -10 -6 -5 -6 -1 5 8 8 8 8 8
-0 -1 -1 -1 2 3 4 4 5 5 4 4 3 1 -0 -1 -0 1 0 -1 -1 -1 -2 -1 -3 -4 -6 -4 -5 -7 -8 -9 -12 -12 -9 -5 -4 -4 -0 3 6 8 9
-5 -6 -7 -7 -6 -3 2 3 3 4 4 4 3 3 1 -0 -1 -1 1 0 -1 -0 -2 -2 -3 -4 -4 -5 -5 -5 -7 -9 -10 -13 -15 -12 -7 -5 -4 -2 1 4 7
-5 -5 -4 -3 -4 -0 1 2 2 3 3 3 3 3 3 2 1 -0 -0 0 0 -0 -1 -2 -4 -4 -4 -4 -4 -5 -6 -7 -10 -13 -15 -18 -16 -12 -7 -5 -4 -2 2
-2 -2 -1 -11 -10 -4 -1 -0 2 3 3 3 3 3 3 3 2 2 0 -1 0 -1 -2 -3 -3 -3 -3 -3 -3 -4 -4 -6 -9 -12 -17 -18 -19 -19 -18 -12 -7 -5 -3
-4 -3 -2 -7 -6 -4 -3 -3 -0 1 1 2 2 2 2 1 1 1 1 0 -0 -1 -3 -3 -2 -2 -3 -3 -3 -5 -7 -10 -11 -13 -17 -20 -21 -22 -21 -20 -17 -12 -8
-3 -2 -3 -1 0 -0 -1 -1 -1 -1 -0 -0 -0 -0 0 -0 -0 -0 -0 -1 -1 -0 -1 -1 -2 -3 -3 -3 -3 -5 -6 -12 -17 -18 -19 -21 -21 -20 -21 -20 -18 -14 -16
-2 -1 0 0 0 -0 0 -0 -1 -1 -1 -1 -1 -2 -2 -2 -3 -3 -3 -3 -3 -3 -2 -2 -2 -3 -5 -4 -5 -6 -5 -8 -13 -20 -22 -23 -22 -22 -17 -11 -6 -8 -8
-2 -0 -0 0 -0 -1 -1 -1 -2 -2 -5 -5 -4 -4 -4 -4 -4 -5 -5 -4 -4 -4 -4 -6 -6 -6 -7 -7 -7 -6 -6 -6 -7 -10 -22 -25 -26 -24 -24 -16 -3 -1 -2
-0 -0 -1 -1 -1 -2 -2 -3 -3 -2 -3 -3 -4 -4 -4 -4 -4 -4 -5 -4 -5 -6 -8 -10 -11 -12 -11 -11 -10 -8 -8 -8 -8 -8 -15 -26 -26 -26 -24 -22 -12 -2 -1
-1 -1 -2 -2 -2 -3 -4 -4 -4 -4 -4 -4 -4 -5 -6 -7 -9 -9 -9 -9 -9 -10 -10 -11 -11 -11 -10 -9 -9 -8 -8 -8 -8 -7 -7 -13 -23 -23 -25 -25 -23 -10 -2
-2 -3 -2 -3 -4 -4 -4 -4 -4 -5 -6 -7 -7 -8 -9 -11 -10 -10 -10 -9 -10 -10 -10 -11 -11 -11 -10 -10 -9 -8 -8 -9 -9 -10 -9 -9 -14 -20 -20 -21 -22 -22 -11
-4 -4 -3 -3 -4 -5 -6 -6 -7 -7 -7 -8 -9 -9 -9 -9 -9 -9 -9 -10 -10 -11 -11 -11 -11 -11 -11 -11 -10 -10 -9 -9 -9 -9 -9 -9 -9 -14 -21 -21 -21 -21 -21
-3 -3 -4 -4 -5 -4 -6 -7 -8 -8 -8 -9 -9 -9 -9 -8 -9 -9 -10 -10 -11 -11 -11 -11 -11 -11 -11 -11 -10 -10 -9 -9 -9 -9 -9 -8 -8 -8 -9 -18 -21 -21 -22
-4 -4 -6 -7 -7 -8 -10 -11 -12 -10 -10 -10 -10 -9 -9 -9 -10 -13 -11 -10 -10 -10 -11 -10 -9 -9 -9 -9 -9 -9 -8 -8 -8 -7 -7 -7 -6 -6 -7 -7 -10 -16 -21
-8 -8 -9 -8 -9 -9 -9 -12 -14 -12 -11 -10 -9 -9 -10 -10 -10 -9 -9 -9 -9 -9 -8 -8 -8 -8 -8 -8 -8 -8 -7 -7 -7 -7 -7 -7 -7 -7 -6 -7 -7 -6 -6
-9 -9 -9 -9 -9 -9 -9 -13 -15 -15 -10 -9 -9 -10 -10 -11 -10 -9 -9 -9 -9 -9 -9 -9 -9 -8 -8 -8 -8 -8 -8 -7 -8 -8 -8 -7 -7 -7 -7 -7 -7 -6 -6
-9 -9 -9 -9 -9 -10 -10 -13 -14 -13 -9 -9 -9 -10 -10 -9 -9 -9 -10 -9 -9 -9 -9 -9 -8 -8 -8 -9 -8 -8 -8 -8 -8 -8 -8 -7 -8 -8 -7 -7 -7 -7 -7
-9 -9 -9 -9 -9 -9 -9 -14 -15 -10 -9 -10 -10 -9 -9 -9 -10 -10 -10 -10 -9 -8 -9 -9 -9 -10 -10 -10 -10 -8 -8 -8 -8 -8 -8 -7 -8 -9 -7 -8 -7 -7 -7
-10 -9 -8 -9 -9 -9 -10 -12 -12 -11 -11 -10 -10 -10 -10 -10 -10 -10 -10 -9 -9 -9 -9 -9 -9 -9 -9 -10 -10 -10 -9 -8 -8 -8 -9 -7 -7 -7 -7 -8 -7 -7 -6

GFSMA_850_dewp_030.txt.gz
Dewpoint
8 5 5 6 6 5 5 5 5 4 5 5 5 4 4 3 3 -1 1 2 1 -1 -6 -11 -11 -10 -7 -1 3 4 5 7 9 10 10 10 10 8 8 8 9 9 9
2 1 3 4 5 5 4 2 4 5 5 5 5 4 3 3 0 -1 1 2 -1 -3 -5 -10 -10 -10 -9 -5 1 5 6 6 8 10 10 10 10 10 9 9 9 8 7
2 2 2 4 5 5 4 3 4 5 5 4 5 4 4 3 1 -0 -2 1 -1 -2 -3 -7 -9 -9 -9 -9 -9 -6 2 6 6 6 8 9 10 10 10 9 9 10 8
4 3 2 3 4 5 4 5 5 5 5 5 4 4 4 3 2 0 -0 -0 -0 -1 -1 -2 -6 -8 -8 -8 -8 -8 -9 -9 -6 3 6 6 7 8 9 9 9 10 10
4 4 3 3 4 4 5 5 5 5 5 5 5 5 4 4 3 1 0 0 -0 -1 -0 -1 -1 -3 -7 -7 -7 -7 -8 -8 -9 -9 -9 -1 5 6 7 7 8 9 9
3 3 1 1 1 3 3 3 4 4 4 4 3 4 5 4 3 3 1 0 0 0 -0 -1 -0 -1 -2 -5 -8 -8 -8 -8 -8 -9 -9 -9 -9 -1 5 7 7 8 8
3 2 2 2 2 2 2 2 2 1 2 3 5 5 5 4 5 5 4 2 0 0 0 -0 -1 -1 -2 -2 -6 -8 -8 -8 -8 -8 -9 -9 -9 -9 -7 1 7 8 8
3 3 3 2 2 1 0 -1 -0 2 2 3 4 4 5 4 4 3 3 3 2 1 1 0 -0 -0 -0 -1 -3 -5 -7 -8 -7 -7 -7 -8 -10 -9 -10 -8 -3 4 7
3 2 1 -1 -1 -1 0 1 -3 -2 1 2 2 3 4 3 3 3 3 3 4 3 2 2 1 0 -0 -0 -1 -3 -4 -6 -6 -6 -6 -7 -9 -10 -9 -10 -10 -6 -1
-1 -1 -2 -2 -2 -2 -1 -1 1 1 1 1 2 2 2 3 4 3 2 2 2 3 3 4 2 3 1 -0 -0 -2 -3 -3 -4 -5 -5 -6 -6 -6 -7 -10 -10 -11 -9
-1 -1 -1 -2 -2 -3 -2 1 2 2 2 3 3 2 1 -0 1 2 2 2 1 2 3 3 4 3 2 2 -0 -2 -2 -3 -3 -4 -5 -5 -4 -4 -4 -5 -10 -11 -12
0 -1 -3 -4 -2 -0 0 1 1 -1 -1 -1 -0 -2 -2 -1 -1 -1 -0 0 0 1 2 3 3 4 3 2 1 -0 -1 -2 -2 -3 -4 -4 -4 -4 -5 -7 -9 -10 -11
-1 -2 -2 -1 -0 0 -1 -1 -2 -2 -1 -1 -2 -3 -2 -1 -2 -2 -2 -2 -2 -2 -2 -2 1 2 2 1 1 0 0 0 -2 -2 -3 -4 -4 -5 -7 -9 -11 -12 -12
-1 -1 -1 -0 -1 -2 -2 -1 -1 -1 -3 -2 -3 -3 -3 -3 -3 -3 -3 -3 -4 -4 -4 -2 -2 -1 0 -0 -0 0 0 -0 -1 -2 -3 -3 -5 -9 -11 -12 -13 -14 -15
-2 -1 -2 -3 -2 -2 -1 -3 -3 -5 -4 -2 -2 -2 -2 -3 -2 -3 -5 -5 -4 -4 -6 -6 -3 -3 -2 -1 -1 -1 -1 -2 -2 -3 -4 -5 -5 -9 -14 -15 -15 -16 -17
-3 -3 -3 -3 -4 -5 -4 -4 -5 -3 -4 -4 -6 -7 -6 -6 -5 -5 -5 -4 -4 -4 -5 -7 -8 -8 -6 -5 -4 -3 -6 -6 -5 -5 -5 -5 -5 -6 -9 -12 -16 -19 -20
-4 -3 -2 -3 -3 -3 -3 -3 -3 -5 -4 -5 -5 -5 -5 -6 -7 -8 -8 -9 -7 -6 -4 -5 -7 -7 -8 -8 -7 -7 -6 -7 -8 -9 -8 -8 -8 -8 -8 -10 -12 -19 -28
-2 -2 -3 -3 -3 -4 -5 -5 -6 -6 -7 -6 -6 -8 -9 -9 -9 -9 -9 -9 -9 -9 -9 -9 -9 -9 -10 -10 -10 -10 -10 -9 -8 -8 -7 -7 -8 -8 -8 -9 -9 -11 -14
-3 -4 -4 -5 -5 -6 -7 -8 -9 -9 -8 -8 -10 -11 -10 -9 -9 -9 -9 -8 -8 -9 -9 -9 -10 -10 -11 -11 -11 -11 -11 -10 -10 -10 -9 -9 -9 -9 -9 -9 -9 -10 -10
-4 -5 -6 -7 -7 -9 -9 -9 -10 -9 -9 -10 -11 -13 -10 -10 -10 -9 -9 -9 -9 -8 -9 -9 -10 -10 -10 -10 -10 -11 -9 -9 -9 -9 -9 -10 -9 -9 -9 -9 -9 -9 -9
-5 -6 -7 -9 -10 -10 -10 -10 -10 -10 -9 -10 -11 -13 -11 -10 -9 -9 -9 -9 -9 -10 -11 -10 -9 -8 -8 -8 -8 -8 -9 -9 -9 -8 -8 -8 -8 -8 -7 -6 -6 -7 -7
-6 -8 -10 -10 -10 -10 -9 -10 -10 -9 -10 -10 -11 -12 -9 -8 -9 -9 -8 -8 -9 -9 -9 -9 -10 -10 -11 -10 -10 -9 -9 -10 -10 -12 -11 -11 -11 -11 -11 -9 -8 -7 -7
-9 -10 -10 -10 -9 -9 -9 -9 -9 -8 -9 -10 -10 -9 -9 -9 -9 -9 -9 -9 -9 -9 -11 -11 -10 -10 -10 -11 -10 -10 -10 -10 -9 -10 -9 -8 -8 -9 -9 -9 -10 -10 -8
-10 -10 -10 -10 -10 -10 -10 -9 -9 -10 -11 -12 -11 -11 -11 -11 -11 -11 -11 -11 -11 -9 -10 -9 -9 -9 -8 -8 -8 -8 -8 -8 -8 -8 -8 -8 -10 -9 -10 -10 -11 -10 -10
-10 -11 -10 -10 -10 -10 -11 -10 -9 -11 -12 -13 -13 -12 -11 -12 -12 -11 -10 -10 -11 -11 -11 -10 -9 -9 -8 -9 -10 -9 -9 -9 -9 -10 -11 -9 -8 -9 -9 -9 -10 -11 -11
-10 -10 -10 -9 -10 -11 -10 -10 -11 -10 -10 -11 -13 -13 -13 -12 -11 -10 -10 -10 -10 -10 -10 -11 -11 -11 -11 -11 -10 -9 -8 -8 -8 -8 -10 -9 -10 -9 -8 -10 -10 -10 -9

GFSMA_850_dewp_033.txt.gz
Dewpoint
0 -0 1 1 2 5 5 4 4 3 2 2 3 4 4 3 2 2 -0 -3 -1 1 1 -1 -5 -9 -11 -11 -9 -4 1 5 7 8 10 10 10 10 8 6 7 9 9
-2 -0 -0 0 2 5 5 4 3 4 4 4 4 4 4 5 4 3 2 -0 -3 2 0 -2 -4 -8 -10 -10 -9 -5 -1 3 4 7 10 10 10 10 9 8 7 8 9
-1 -1 -1 1 4 5 4 3 2 2 5 4 5 5 4 4 4 4 3 2 1 -1 -2 -2 -4 -4 -9 -9 -9 -8 -6 -0 4 5 7 10 10 10 10 9 9 8 9
5 4 3 1 -0 0 -0 -0 0 2 4 5 5 5 5 5 5 4 4 3 1 0 0 -2 -3 -3 -3 -8 -9 -9 -9 -9 -7 1 5 6 8 9 10 9 9 9 9
5 4 3 0 1 2 2 3 3 4 5 5 5 5 4 2 2 4 4 4 2 1 0 0 -0 -2 -2 -3 -6 -8 -8 -8 -8 -8 -9 -3 4 6 7 8 9 9 9
3 2 2 2 2 2 2 3 2 2 3 2 1 1 3 4 5 5 2 4 5 4 1 0 0 -0 -1 -2 -3 -6 -7 -8 -8 -8 -8 -9 -9 -6 2 6 7 7 9
3 3 3 3 3 2 1 -0 -1 -2 -3 -2 1 -1 2 2 2 1 3 1 1 4 4 2 0 0 0 -1 -2 -2 -4 -8 -8 -8 -8 -8 -9 -9 -9 -8 -1 6 7
4 4 3 2 1 -1 -2 -1 -2 -1 -4 -7 0 2 2 0 0 2 2 3 3 4 5 4 2 1 0 -0 -1 -1 -2 -4 -8 -7 -8 -8 -8 -9 -9 -9 -7 -6 4
2 1 -0 -1 -1 -2 -2 -2 -2 -5 -5 0 2 2 3 2 2 1 -0 0 1 2 3 3 4 3 2 2 -0 -0 -1 -2 -7 -7 -8 -7 -7 -8 -9 -10 -10 -9 -5
0 -1 -1 -1 -1 -2 -5 -6 -3 0 2 2 2 1 1 -0 -0 -0 -0 -0 0 1 2 3 3 4 4 3 3 2 -0 -1 -3 -4 -6 -7 -7 -8 -9 -9 -10 -10 -10
0 -0 0 -0 -4 -6 -2 -0 1 1 -1 -2 -3 -3 -3 -2 -4 -3 -2 -3 -4 -4 -3 -0 1 3 4 4 3 2 1 -1 -3 -4 -5 -6 -5 -7 -7 -5 -5 -6 -10
2 1 -1 -3 -3 -2 -1 0 -2 -2 -3 -2 -3 -3 -3 -4 -3 -2 -2 -4 -4 -4 -5 -4 -3 -2 -1 3 3 2 2 1 -2 -3 -3 -3 -5 -6 -5 -5 -5 -5 -6
0 -0 -4 -5 -4 -2 -4 -3 -3 -3 -3 -4 -5 -5 -3 -4 -3 -3 -3 -3 -4 -6 -6 -7 -5 -2 -1 1 1 1 1 0 -0 -3 -2 -2 -3 -4 -4 -5 -6 -8 -7
-1 -3 -2 -3 -4 -4 -3 -3 -3 -4 -5 -6 -6 -5 -2 -3 -3 -3 -3 -3 -4 -5 -7 -7 -8 -6 -4 -4 -0 0 -0 0 -0 -0 -2 -4 -4 -2 -4 -4 -5 -9 -11
-2 -2 -3 -4 -4 -5 -5 -4 -5 -6 -6 -6 -5 -6 -7 -6 -5 -4 -4 -4 -4 -4 -4 -7 -8 -8 -8 -7 -5 -2 -2 -2 -1 -1 -1 -2 -3 -3 -3 -4 -5 -11 -13
-2 -3 -3 -4 -3 -3 -4 -4 -4 -5 -5 -5 -6 -5 -5 -5 -5 -6 -6 -6 -5 -5 -4 -5 -9 -8 -8 -7 -8 -8 -3 -3 -3 -3 -3 -3 -5 -6 -8 -7 -7 -8 -11
-4 -3 -3 -3 -3 -3 -4 -5 -4 -5 -5 -5 -6 -5 -5 -7 -8 -9 -9 -9 -9 -8 -7 -7 -8 -8 -9 -9 -9 -7 -6 -6 -4 -4 -4 -7 -8 -9 -9 -10 -10 -10 -12
-5 -4 -3 -4 -5 -5 -6 -6 -8 -8 -8 -8 -8 -7 -8 -10 -13 -13 -10 -9 -9 -9 -8 -8 -8 -8 -9 -10 -10 -10 -10 -9 -8 -7 -6 -6 -7 -7 -7 -8 -8 -8 -9
-5 -5 -5 -5 -6 -7 -9 -9 -10 -9 -9 -9 -9 -9 -10 -11 -14 -15 -10 -10 -10 -9 -9 -8 -8 -8 -9 -10 -11 -12 -13 -13 -12 -11 -10 -10 -10 -9 -9 -9 -9 -9 -9
-5 -5 -6 -6 -9 -10 -10 -10 -10 -10 -10 -10 -10 -10 -10 -12 -13 -11 -9 -9 -8 -9 -9 -10 -12 -12 -12 -11 -10 -10 -10 -8 -8 -9 -9 -9 -10 -10 -10 -10 -10 -9 -9
-5 -6 -6 -8 -10 -10 -10 -9 -9 -9 -10 -10 -10 -10 -11 -12 -10 -8 -8 -8 -8 -7 -8 -9 -10 -10 -10 -12 -13 -11 -9 -8 -8 -8 -9 -8 -7 -7 -8 -8 -8 -8 -8
-6 -7 -8 -10 -10 -10 -10 -9 -10 -11 -10 -10 -11 -13 -14 -12 -10 -9 -8 -9 -9 -8 -8 -8 -8 -9 -11 -12 -11 -11 -11 -11 -11 -11 -12 -12 -12 -12 -10 -10 -10 -11 -11
-7 -9 -10 -10 -10 -10 -10 -10 -11 -12 -11 -11 -13 -14 -14 -13 -12 -12 -11 -12 -11 -11 -10 -10 -9 -11 -10 -10 -9 -9 -9 -10 -10 -11 -11 -11 -12 -12 -11 -10 -10 -10 -10
-8 -10 -10 -10 -10 -10 -9 -11 -11 -11 -11 -12 -12 -12 -13 -13 -12 -12 -12 -12 -12 -12 -11 -10 -10 -11 -10 -9 -8 -9 -9 -9 -9 -9 -9 -10 -10 -11 -12 -12 -12 -11 -11
-11 -10 -10 -10 -10 -9 -11 -11 -11 -11 -11 -11 -12 -12 -13 -13 -13 -11 -11 -11 -11 -11 -11 -10 -10 -10 -10 -11 -9 -9 -8 -9 -9 -10 -11 -10 -11 -12 -11 -11 -10 -11 -11
-10 -9 -9 -9 -9 -11 -12 -10 -11 -11 -11 -12 -12 -13 -14 -13 -12 -11 -11 -11 -11 -13 -12 -12 -12 -12 -12 -11 -11 -11 -10 -9 -9 -9 -11 -8 -9 -9 -8 -12 -11 -12 -11

GFSMA_850_dewp_036.txt.gz
Dewpoint
3 5 1 0 1 2 3 4 4 3 2 2 2 2 3 2 2 3 3 3 2 0 -3 -3 -2 -2 -4 -7 -10 -9 -5 1 6 8 8 9 9 9 9 8 6 5 8
2 -1 0 1 2 3 4 3 3 3 2 1 2 4 4 4 4 4 4 4 4 3 2 0 -1 -3 -4 -5 -8 -10 -7 -1 2 5 7 9 10 10 10 9 9 6 9
1 -1 1 -0 0 2 1 1 2 2 3 3 4 4 5 5 5 5 5 5 5 4 3 2 1 -0 -3 -4 -5 -8 -9 -8 -3 4 5 6 9 10 10 10 10 8 7
4 4 4 4 2 1 1 1 2 2 3 4 4 4 5 5 6 5 3 4 4 5 4 2 1 1 0 -1 -2 -4 -8 -9 -9 -8 -0 5 6 8 10 10 10 9 8
5 5 4 3 3 1 2 2 2 3 3 2 2 2 1 0 -1 1 4 4 1 4 5 4 2 1 0 0 0 -1 -3 -6 -8 -8 -8 -8 -0 5 6 8 9 9 9
4 3 3 3 3 3 3 3 0 -1 -3 -4 -6 -8 -10 -11 -11 -7 -2 0 3 3 2 3 4 3 1 0 1 0 -0 -2 -6 -8 -7 -8 -8 -7 -2 5 7 8 9
4 4 4 3 3 3 1 -0 -1 -3 -4 -5 -8 -13 -14 -13 -6 -4 -3 2 2 3 3 3 4 4 4 2 1 1 0 -0 -2 -5 -6 -7 -8 -8 -8 -7 -2 5 7
3 3 3 2 1 -0 -1 -1 -2 -3 -6 -9 -6 -1 -0 -2 -2 -1 -2 -1 1 1 1 2 2 4 4 4 3 1 1 0 -0 -1 -3 -3 -6 -8 -8 -8 -7 -7 -4
0 0 -0 -1 -1 -1 -1 -2 -5 -10 -7 -1 1 0 -0 -0 -2 -3 -3 -3 -1 -0 -1 0 1 2 3 3 4 3 1 1 0 -1 -1 -2 -5 -7 -8 -8 -9 -9 -8
0 0 0 0 0 -2 -9 -7 -3 0 -0 -1 -2 -2 -3 -3 -2 -3 -3 -3 -5 -6 -5 -5 -3 -1 1 4 4 4 2 1 -0 -0 0 -0 -2 -6 -8 -8 -9 -9 -10
1 1 0 -1 -5 -8 -7 -4 -3 -2 -3 -3 -2 -2 -3 -4 -5 -4 -4 -3 -6 -7 -7 -6 -6 -5 -4 -3 0 3 4 4 2 2 -1 -2 -2 -4 -7 -7 -9 -10 -10
0 -0 -1 -3 -3 -4 -6 -6 -4 -2 -3 -3 -4 -5 -5 -4 -3 -3 -3 -3 -3 -5 -7 -8 -7 -5 -3 -2 -1 -0 1 3 2 1 1 1 1 -1 -6 -8 -8 -8 -6
-2 -2 -2 -2 -2 -4 -5 -5 -5 -4 -4 -6 -6 -6 -5 -3 -3 -4 -3 -4 -4 -4 -4 -6 -8 -8 -8 -8 -6 -2 0 1 2 2 0 0 -1 -2 -6 -7 -6 -5 -5
-2 -2 -2 -2 -4 -4 -4 -5 -5 -5 -6 -6 -6 -6 -6 -6 -5 -5 -3 -4 -4 -4 -5 -5 -8 -9 -8 -7 -8 -8 -3 -0 0 1 -0 -1 -2 -2 -3 -5 -5 -5 -6
-2 -6 -6 -4 -3 -3 -3 -4 -4 -5 -5 -5 -5 -5 -5 -5 -5 -5 -5 -5 -5 -4 -4 -4 -7 -9 -10 -10 -8 -7 -7 -4 -2 -1 -1 -0 -2 -2 -3 -4 -4 -4 -4
-4 -9 -4 -3 -4 -4 -4 -4 -4 -4 -5 -5 -5 -5 -5 -5 -5 -7 -7 -8 -7 -7 -5 -6 -8 -8 -9 -9 -9 -8 -6 -5 -4 -3 -3 -2 -2 -2 -2 -2 -2 -1 -0
-4 -11 -7 -5 -4 -5 -6 -6 -7 -7 -8 -8 -8 -7 -6 -6 -7 -8 -8 -12 -13 -10 -9 -9 -9 -8 -9 -9 -9 -10 -10 -9 -6 -6 -4 -3 -3 -3 -4 -5 -7 -9 -10
-5 -11 -8 -7 -6 -6 -7 -8 -9 -10 -9 -9 -8 -8 -9 -10 -10 -11 -12 -14 -16 -12 -10 -10 -9 -10 -9 -9 -8 -9 -10 -11 -11 -11 -8 -6 -5 -4 -4 -4 -6 -7 -8
-10 -8 -8 -6 -6 -8 -9 -10 -10 -9 -9 -10 -10 -10 -10 -11 -11 -12 -13 -13 -13 -11 -9 -8 -9 -9 -9 -11 -13 -12 -10 -10 -11 -13 -12 -10 -7 -8 -5 -5 -5 -8 -9
-8 -6 -6 -6 -6 -7 -10 -10 -10 -10 -10 -10 -12 -13 -12 -12 -13 -12 -9 -8 -8 -8 -8 -8 -8 -8 -9 -11 -12 -12 -13 -13 -10 -10 -8 -8 -9 -10 -10 -10 -10 -10 -10
-6 -5 -5 -7 -8 -10 -10 -10 -10 -10 -11 -12 -13 -12 -13 -14 -15 -11 -9 -9 -9 -9 -9 -8 -8 -8 -9 -10 -11 -12 -13 -12 -13 -10 -9 -8 -8 -7 -7 -8 -8 -8 -8
-5 -6 -7 -8 -10 -11 -10 -10 -10 -10 -12 -12 -12 -12 -13 -13 -14 -13 -12 -12 -11 -10 -10 -10 -10 -10 -11 -12 -13 -11 -10 -10 -10 -13 -13 -11 -11 -10 -10 -9 -7 -7 -8
-5 -7 -6 -10 -10 -10 -10 -9 -11 -12 -12 -12 -12 -12 -12 -12 -13 -15 -13 -13 -13 -12 -12 -11 -10 -10 -10 -10 -10 -11 -10 -10 -10 -10 -9 -10 -12 -12 -13 -13 -12 -12 -11
-5 -6 -10 -10 -10 -9 -9 -11 -12 -11 -11 -12 -12 -13 -13 -13 -15 -13 -12 -11 -11 -11 -11 -11 -11 -11 -11 -12 -10 -10 -11 -9 -10 -10 -11 -9 -12 -13 -13 -13 -12 -12 -12
-9 -10 -9 -9 -9 -9 -11 -12 -12 -13 -13 -12 -12 -13 -15 -14 -12 -12 -11 -11 -12 -12 -13 -13 -13 -12 -10 -10 -10 -10 -11 -8 -9 -10 -12 -9 -12 -10 -11 -12 -13 -12 -11
-7 -8 -8 -9 -9 -11 -12 -13 -15 -15 -17 -18 -17 -16 -14 -13 -12 -12 -11 -11 -11 -12 -12 -12 -12 -12 -12 -12 -12 -12 -12 -11 -11 -10 -11 -9 -9 -8 -9 -12 -13 -13 -11

GFSMA_850_dewp_039.txt.gz
Dewpoint
7 2 3 2 1 2 3 3 3 3 3 3 2 2 4 4 5 5 5 5 5 4 4 3 2 1 -1 -2 -3 -5 -8 -10 -9 -3 6 8 8 9 9 9 8 7 7
7 4 2 1 1 1 3 3 4 2 2 2 1 2 3 3 4 5 5 5 5 5 5 4 4 3 2 0 -1 -4 -5 -8 -9 -6 -3 5 8 9 9 9 9 9 8
6 4 2 4 2 2 2 2 1 1 2 2 2 2 3 3 4 5 6 6 5 4 5 5 4 3 2 1 0 -1 -1 -3 -7 -8 -5 -1 3 6 9 10 9 9 9
5 5 5 5 5 4 3 1 1 2 3 1 -0 0 1 0 0 -0 -1 -1 2 5 4 2 4 4 2 1 1 1 0 -0 -2 -7 -8 -8 -2 3 5 8 10 10 10
6 6 6 5 4 4 3 3 3 3 2 -1 -3 -5 -7 -8 -10 -11 -11 -10 -5 -2 -0 0 0 3 4 3 2 1 1 1 0 -1 -5 -8 -8 -7 3 6 7 9 10
6 5 4 4 4 4 3 3 2 0 -1 -2 -3 -5 -8 -12 -16 -12 -3 -1 -0 0 1 2 1 1 2 3 3 1 0 1 0 0 -1 -3 -8 -8 -8 -3 5 6 7
4 4 4 3 3 2 0 -1 -1 -1 -2 -2 -4 -9 -16 -17 -8 -6 -6 -3 1 1 2 2 2 2 2 3 4 3 2 1 6 2 0 -1 -2 -6 -8 -8 -7 2 6
2 1 0 -0 -0 -0 -0 -0 -1 -4 -7 -9 -7 -5 -5 -8 -8 -3 -7 -9 -7 -6 -6 -5 -3 -1 -0 0 2 4 4 2 3 6 3 2 -0 -1 -3 -7 -8 -7 -4
1 1 1 1 1 0 -1 -7 -12 -12 -11 -8 -3 -2 -2 -3 -3 -4 -5 -5 -5 -6 -7 -7 -8 -8 -8 -7 -3 1 3 4 3 1 4 3 3 1 -1 -4 -8 -8 -6
1 2 1 1 -1 -2 -5 -8 -8 -10 -7 -4 -4 -4 -2 -2 -2 -3 -4 -5 -7 -8 -8 -7 -7 -7 -6 -6 -6 -4 1 3 3 3 2 2 4 4 2 -0 -5 -8 -8
1 -0 -1 -2 -3 -3 -3 -3 -7 -6 -2 -2 -2 -3 -4 -5 -5 -3 -3 -3 -5 -7 -7 -7 -8 -6 -5 -4 -4 -4 -3 -1 -0 3 3 2 2 5 5 3 -2 -7 -8
-3 -3 -3 -3 -2 -3 -3 -5 -6 -6 -5 -4 -5 -5 -5 -4 -3 -4 -3 -5 -4 -5 -4 -7 -7 -8 -8 -8 -9 -7 -5 -2 -0 -1 1 2 2 2 5 4 -2 -6 -7
-5 -3 -3 -4 -9 -8 -6 -5 -5 -5 -5 -6 -6 -6 -6 -5 -4 -4 -4 -4 -5 -6 -5 -6 -7 -8 -9 -9 -9 -8 -8 -7 -3 -0 0 1 2 2 4 3 1 1 -4
-4 -4 -5 -8 -9 -5 -5 -4 -4 -4 -4 -5 -5 -5 -5 -5 -4 -5 -4 -4 -5 -4 -4 -6 -6 -7 -10 -10 -11 -9 -8 -7 -7 -3 -0 -0 2 2 0 1 2 1 0
-6 -4 -4 -10 -5 -3 -3 -3 -4 -5 -5 -5 -6 -6 -6 -5 -4 -5 -6 -6 -6 -6 -6 -8 -9 -8 -9 -9 -10 -10 -9 -8 -6 -7 -3 -1 -1 -0 0 -0 -0 -1 -3
-6 -5 -4 -9 -10 -5 -4 -5 -6 -7 -8 -8 -8 -8 -8 -7 -6 -6 -7 -7 -8 -9 -8 -10 -12 -11 -9 -9 -9 -10 -10 -9 -10 -9 -7 -4 -3 -1 -1 -1 -2 -2 -3
-4 -4 -5 -11 -10 -7 -6 -7 -7 -9 -10 -10 -10 -9 -8 -8 -7 -7 -9 -9 -11 -12 -14 -14 -14 -13 -10 -10 -10 -10 -9 -10 -10 -10 -10 -8 -4 -3 -3 -2 -2 -2 -3
-4 -5 -8 -6 -6 -6 -7 -8 -9 -10 -10 -9 -9 -9 -9 -10 -11 -13 -13 -13 -12 -13 -12 -11 -11 -10 -8 -9 -9 -10 -11 -13 -10 -10 -11 -12 -8 -6 -4 -3 -4 -4 -4
-4 -4 -4 -7 -5 -6 -7 -8 -10 -10 -10 -10 -10 -11 -12 -13 -14 -14 -14 -14 -12 -10 -8 -8 -9 -8 -8 -8 -9 -10 -12 -13 -14 -12 -10 -10 -9 -7 -6 -5 -4 -4 -4
-5 -4 -4 -4 -5 -6 -9 -10 -11 -11 -10 -10 -11 -12 -13 -13 -13 -14 -15 -12 -9 -9 -9 -9 -8 -8 -8 -8 -9 -10 -11 -13 -14 -15 -13 -10 -8 -8 -8 -8 -9 -8 -6
-4 -4 -4 -5 -7 -8 -9 -11 -10 -9 -10 -12 -13 -12 -13 -13 -13 -13 -13 -14 -13 -12 -11 -10 -10 -10 -10 -9 -10 -10 -11 -13 -14 -15 -17 -15 -9 -8 -8 -8 -8 -8 -8
-4 -3 -4 -7 -6 -8 -10 -10 -9 -10 -12 -12 -12 -13 -13 -12 -13 -12 -13 -15 -14 -11 -12 -11 -11 -11 -11 -10 -11 -12 -11 -12 -11 -11 -11 -13 -13 -11 -9 -8 -9 -8 -8
-5 -5 -6 -6 -7 -9 -9 -9 -10 -11 -11 -11 -12 -13 -13 -13 -13 -14 -16 -14 -13 -12 -11 -11 -11 -11 -11 -11 -11 -10 -10 -10 -10 -11 -9 -11 -12 -12 -13 -13 -12 -12 -11
-5 -6 -9 -9 -9 -9 -9 -10 -12 -13 -14 -15 -17 -18 -17 -16 -15 -12 -12 -12 -12 -12 -12 -11 -11 -11 -11 -10 -10 -11 -11 -9 -11 -12 -9 -9 -12 -12 -13 -13 -13 -13 -13
-7 -8 -8 -8 -8 -9 -11 -12 -13 -14 -15 -19 -20 -16 -15 -14 -13 -12 -12 -11 -11 -12 -12 -12 -12 -12 -12 -13 -11 -9 -9 -10 -10 -12 -10 -9 -12 -11 -11 -12 -13 -13 -14
-7 -7 -7 -8 -9 -10 -11 -12 -13 -14 -17 -18 -16 -15 -13 -12 -12 -12 -12 -12 -12 -12 -11 -12 -11 -11 -11 -11 -12 -13 -12 -11 -12 -12 -12 -9 -10 -9 -9 -12 -12 -11 -13

GFSMA_850_dewp_042.txt.gz
Dewpoint
7 6 5 4 2 2 2 2 2 3 3 2 2 2 2 2 3 4 4 5 5 5 4 4 4 4 4 3 2 0 -3 -5 -5 -9 -9 -8 4 7 8 8 9 8 7
9 8 4 3 2 2 2 2 3 3 2 1 2 2 1 -0 1 3 3 5 5 5 5 5 4 4 4 3 2 1 1 -1 -2 -5 -9 -7 -4 4 8 8 8 9 9
9 7 5 4 5 4 3 4 3 2 2 2 3 3 1 -2 -4 -3 -3 -2 -0 1 3 5 4 3 4 4 3 1 1 1 1 -1 -4 -8 -7 -1 4 7 8 9 9
8 6 5 6 6 5 5 4 3 3 3 3 2 0 -2 -4 -5 -7 -9 -11 -11 -10 -8 -4 -0 1 1 4 4 2 1 4 2 1 1 -2 -7 -8 -2 3 6 8 9
7 7 6 6 5 5 5 4 3 2 1 0 -1 -2 -3 -3 -5 -8 -13 -13 -6 -3 -2 -1 0 1 0 0 3 3 2 1 3 4 1 1 -1 -5 -8 -6 2 5 8
6 5 4 4 3 2 1 0 -0 -0 -1 -2 -3 -4 -6 -12 -17 -14 -6 -2 -1 -2 -1 -0 0 0 1 1 1 2 3 3 2 2 6 3 1 -0 -4 -8 -8 -3 5
3 3 2 1 0 0 0 0 0 -2 -6 -11 -16 -15 -17 -10 -3 -6 -7 -5 -5 -8 -11 -10 -8 -4 -0 1 2 2 3 4 3 1 2 6 5 2 0 -2 -7 -8 -8
-2 -1 1 1 1 1 1 -2 -5 -9 -12 -15 -14 -13 -7 -9 -8 -5 -4 -9 -8 -10 -10 -11 -11 -11 -11 -11 -6 -3 0 2 4 3 2 3 5 5 3 1 -1 -5 -8
0 1 2 2 1 -2 -4 -6 -7 -9 -10 -13 -10 -5 -3 -3 -4 -6 -6 -5 -5 -7 -8 -8 -9 -9 -8 -8 -9 -9 -9 -5 -2 2 4 3 4 5 4 3 2 -1 -4
1 1 -1 -3 -4 -5 -5 -7 -11 -11 -11 -10 -8 -6 -4 -2 -2 -2 -4 -6 -8 -8 -8 -7 -7 -8 -7 -6 -6 -6 -7 -7 -7 -4 1 3 3 4 4 4 3 2 -2
-2 -4 -5 -5 -5 -5 -9 -12 -9 -7 -6 -6 -5 -5 -5 -6 -5 -3 -4 -4 -4 -7 -8 -8 -7 -7 -9 -8 -9 -9 -7 -6 -6 -5 -4 0 2 3 3 4 5 4 2
-8 -8 -6 -6 -6 -8 -14 -9 -7 -6 -5 -5 -6 -6 -6 -5 -5 -5 -5 -5 -5 -6 -7 -9 -7 -8 -8 -8 -10 -9 -9 -9 -9 -7 -5 -3 -2 1 3 2 6 5 3
-11 -9 -8 -7 -6 -6 -14 -10 -8 -7 -6 -4 -4 -5 -5 -5 -4 -4 -4 -5 -5 -5 -6 -6 -6 -7 -8 -9 -10 -11 -11 -10 -10 -10 -8 -5 -3 -0 -0 2 3 3 4
-8 -8 -7 -6 -6 -6 -11 -6 -5 -5 -5 -5 -5 -5 -5 -6 -6 -6 -4 -4 -5 -7 -6 -7 -8 -9 -11 -12 -13 -13 -12 -12 -11 -10 -9 -7 -3 -2 -0 2 2 3 3
-6 -5 -5 -4 -6 -7 -5 -3 -5 -6 -6 -7 -8 -9 -9 -9 -7 -7 -5 -6 -7 -7 -7 -8 -10 -11 -12 -13 -14 -12 -12 -12 -11 -10 -11 -11 -7 -2 -0 0 2 3 1
-5 -4 -4 -6 -6 -8 -5 -5 -6 -7 -8 -9 -9 -10 -10 -9 -8 -7 -7 -6 -7 -9 -9 -10 -11 -13 -14 -14 -13 -10 -10 -11 -11 -11 -10 -10 -11 -6 -2 -1 -1 0 -0
-4 -3 -4 -5 -5 -6 -6 -6 -6 -8 -9 -10 -10 -9 -9 -9 -9 -10 -11 -11 -12 -12 -11 -14 -13 -14 -14 -14 -10 -9 -10 -11 -11 -11 -11 -11 -11 -11 -6 -2 -3 -1 -0
-6 -3 -4 -4 -4 -4 -6 -5 -8 -9 -10 -10 -10 -10 -10 -10 -11 -13 -13 -14 -14 -14 -12 -11 -12 -12 -11 -11 -7 -8 -10 -11 -12 -13 -15 -11 -11 -12 -12 -6 -3 -3 -3
-6 -5 -4 -4 -3 -4 -5 -6 -8 -10 -10 -10 -10 -10 -11 -13 -13 -13 -13 -14 -14 -14 -11 -10 -10 -10 -9 -8 -8 -8 -9 -10 -11 -12 -14 -13 -9 -10 -9 -11 -4 -4 -4
-8 -6 -4 -4 -3 -5 -5 -8 -8 -10 -10 -10 -10 -12 -13 -13 -13 -12 -11 -11 -12 -12 -14 -13 -12 -10 -10 -11 -9 -9 -8 -9 -11 -12 -14 -15 -13 -7 -7 -7 -8 -6 -6
-6 -5 -3 -4 -4 -5 -7 -7 -8 -9 -9 -10 -12 -13 -12 -12 -11 -11 -11 -11 -11 -12 -12 -12 -12 -11 -12 -12 -11 -10 -10 -11 -12 -12 -14 -16 -17 -14 -8 -8 -8 -8 -8
-4 -4 -6 -5 -6 -6 -7 -8 -9 -9 -10 -13 -13 -14 -15 -16 -15 -14 -13 -14 -12 -12 -12 -12 -11 -11 -12 -12 -12 -11 -10 -10 -11 -12 -13 -12 -12 -14 -12 -9 -8 -9 -8
-4 -5 -7 -7 -8 -9 -8 -8 -9 -11 -13 -13 -15 -17 -19 -18 -16 -15 -14 -13 -13 -13 -12 -12 -11 -11 -11 -11 -11 -10 -11 -10 -10 -11 -10 -11 -12 -11 -12 -12 -11 -9 -8
-8 -8 -8 -9 -8 -8 -7 -9 -11 -12 -13 -15 -18 -18 -16 -15 -14 -13 -12 -12 -12 -12 -11 -11 -11 -12 -12 -12 -12 -12 -10 -10 -11 -11 -11 -11 -11 -12 -13 -12 -12 -13 -12
-8 -8 -7 -7 -7 -8 -9 -11 -12 -13 -15 -16 -18 -16 -15 -13 -13 -12 -12 -12 -13 -13 -11 -11 -11 -11 -11 -11 -11 -11 -10 -10 -10 -10 -12 -11 -12 -12 -11 -12 -12 -13 -13
-6 -7 -7 -7 -8 -9 -10 -11 -12 -13 -14 -16 -17 -16 -14 -13 -12 -13 -12 -12 -13 -12 -12 -12 -11 -11 -11 -11 -11 -11 -12 -11 -10 -10 -13 -12 -12 -9 -9 -10 -11 -10 -11

GFSMA_850_dewp_045.txt.gz
Dewpoint
9 8 7 6 5 3 2 2 2 3 3 3 1 1 2 2 2 0 -1 -3 -1 1 4 4 4 3 2 3 3 3 1 0 -0 -2 -4 -7 -8 -5 5 7 8 9 8
9 9 7 5 4 3 4 3 3 4 3 2 1 2 2 3 1 -1 -3 -5 -6 -4 0 4 4 4 4 3 3 4 3 1 0 0 -0 -2 -6 -7 -3 5 8 8 9
8 9 7 5 5 5 5 5 4 4 4 3 3 3 3 2 -0 -1 -3 -5 -7 -9 -10 -10 -7 -2 2 4 3 3 4 3 1 1 1 1 -0 -4 -8 -1 5 8 8
7 8 7 7 6 6 6 5 5 4 3 2 1 1 -0 -1 -2 -3 -4 -6 -8 -10 -9 -8 -8 -8 -7 -5 -2 -0 4 4 2 1 2 1 1 0 -3 -8 -3 3 7
6 6 6 5 4 3 3 1 1 0 -0 -0 -1 -2 -4 -6 -9 -12 -15 -12 -8 -5 -4 -3 -2 -2 -2 -2 -2 -1 -1 2 4 2 2 4 2 1 1 -1 -7 -7 2
2 2 2 2 1 1 1 1 1 -0 -3 -7 -11 -14 -17 -20 -21 -20 -13 -6 -4 -3 -4 -7 -8 -7 -5 -2 -1 -1 -0 1 2 4 2 2 4 5 2 1 -1 -6 -8
-2 -2 -2 -0 1 1 1 -0 -4 -8 -10 -11 -12 -5 -12 -13 -7 -3 -6 -8 -7 -6 -9 -13 -15 -16 -16 -17 -15 -8 -1 1 0 2 3 3 3 2 4 3 1 -1 -6
-1 -1 -0 1 1 -1 -4 -7 -9 -10 -12 -14 -12 -4 -6 -5 -3 -4 -5 -9 -9 -8 -8 -9 -11 -12 -12 -12 -13 -14 -14 -12 -5 -1 1 3 3 3 3 4 3 2 -0
0 0 -1 -3 -4 -7 -8 -10 -11 -13 -13 -12 -12 -4 -4 -6 -3 -4 -3 -6 -5 -6 -8 -8 -7 -8 -8 -8 -9 -9 -10 -10 -10 -10 -7 -3 1 3 3 4 4 4 3
-1 -3 -6 -8 -9 -10 -11 -11 -12 -14 -12 -4 -6 -4 -4 -2 -2 -4 -5 -5 -6 -5 -7 -9 -8 -7 -7 -8 -9 -9 -8 -8 -8 -8 -8 -8 -6 -2 3 3 4 5 4
-7 -11 -12 -12 -12 -12 -9 -8 -13 -13 -10 -7 -3 -4 -6 -3 -3 -3 -5 -6 -6 -5 -4 -8 -9 -9 -7 -7 -8 -9 -10 -10 -10 -10 -9 -8 -7 -5 -2 2 3 5 4
-12 -10 -8 -8 -8 -7 -6 -7 -10 -9 -7 -6 -5 -4 -3 -3 -4 -3 -4 -5 -4 -5 -4 -4 -6 -9 -10 -8 -8 -10 -10 -11 -11 -11 -11 -11 -10 -8 -4 -1 1 3 5
-9 -7 -7 -6 -5 -5 -5 -7 -8 -6 -5 -5 -5 -4 -5 -6 -6 -6 -5 -4 -4 -4 -4 -5 -5 -6 -7 -9 -9 -11 -12 -14 -15 -14 -13 -12 -11 -10 -8 -4 -1 1 3
-6 -6 -6 -5 -4 -5 -6 -7 -8 -6 -6 -6 -6 -8 -8 -9 -9 -9 -6 -5 -5 -8 -9 -8 -6 -6 -7 -8 -10 -13 -10 -14 -16 -18 -14 -13 -13 -12 -10 -6 -2 -0 0
-6 -5 -4 -3 -3 -4 -6 -7 -7 -7 -6 -7 -7 -8 -9 -10 -10 -9 -8 -6 -6 -7 -9 -9 -9 -9 -8 -8 -8 -9 -9 -10 -15 -15 -16 -13 -12 -12 -12 -7 -1 1 1
-5 -5 -4 -3 -3 -5 -5 -6 -5 -6 -5 -7 -9 -10 -10 -10 -9 -9 -9 -9 -7 -8 -9 -11 -12 -10 -10 -9 -9 -10 -10 -10 -10 -11 -14 -14 -12 -12 -12 -10 -5 -1 0
-6 -7 -8 -5 -3 -5 -4 -5 -5 -5 -7 -8 -10 -10 -10 -10 -10 -10 -11 -10 -10 -10 -10 -12 -11 -10 -9 -9 -8 -8 -8 -8 -9 -10 -13 -13 -13 -13 -12 -12 -9 -3 -2
-12 -10 -8 -4 -3 -4 -4 -3 -4 -8 -7 -10 -11 -10 -10 -10 -11 -11 -10 -10 -11 -10 -11 -11 -11 -10 -10 -9 -9 -8 -8 -9 -9 -10 -11 -13 -14 -15 -13 -13 -13 -10 -3
-13 -11 -8 -4 -3 -3 -4 -4 -5 -8 -8 -10 -10 -9 -10 -11 -10 -9 -9 -10 -10 -10 -10 -10 -11 -11 -11 -10 -9 -9 -9 -8 -8 -9 -10 -11 -13 -15 -9 -10 -10 -9 -4
-12 -12 -8 -5 -5 -5 -4 -5 -7 -7 -9 -9 -9 -10 -12 -11 -9 -9 -10 -10 -10 -10 -10 -11 -12 -12 -12 -11 -11 -10 -10 -10 -9 -9 -9 -11 -13 -15 -15 -8 -8 -7 -5
-11 -9 -6 -5 -7 -6 -5 -6 -7 -9 -9 -9 -11 -13 -14 -15 -16 -16 -11 -11 -10 -11 -11 -12 -12 -12 -12 -12 -12 -11 -10 -10 -10 -9 -9 -10 -10 -10 -16 -13 -8 -8 -7
-10 -5 -6 -7 -7 -6 -7 -9 -9 -8 -9 -11 -13 -14 -16 -18 -16 -15 -15 -14 -12 -12 -11 -11 -11 -11 -11 -12 -11 -10 -10 -10 -10 -10 -9 -9 -8 -9 -8 -8 -8 -9 -7
-8 -7 -8 -6 -8 -8 -8 -8 -8 -10 -12 -13 -14 -16 -18 -15 -13 -12 -12 -12 -12 -12 -12 -11 -11 -11 -11 -11 -11 -10 -10 -10 -10 -10 -9 -9 -8 -9 -9 -9 -13 -9 -9
-7 -6 -7 -8 -8 -8 -8 -9 -10 -12 -13 -14 -16 -17 -15 -12 -12 -12 -12 -11 -12 -11 -11 -11 -11 -11 -11 -10 -10 -10 -10 -10 -10 -10 -10 -10 -9 -8 -8 -9 -12 -13 -10
-7 -5 -6 -7 -7 -7 -9 -9 -12 -12 -13 -15 -16 -17 -14 -13 -13 -13 -12 -12 -12 -12 -12 -12 -12 -12 -11 -11 -11 -11 -10 -10 -10 -10 -9 -10 -9 -8 -8 -13 -13 -13 -13
-7 -7 -7 -7 -8 -9 -9 -11 -12 -12 -14 -14 -13 -13 -13 -13 -13 -13 -13 -13 -13 -12 -12 -12 -12 -11 -11 -10 -11 -10 -10 -11 -10 -9 -10 -9 -10 -9 -8 -9 -10 -10 -11

GFSMA_850_dewp_048.txt.gz
Dewpoint
9 9 9 8 6 7 7 6 6 6 5 4 4 3 3 3 3 2 2 1 1 -1 -3 -6 -3 1 2 2 1 3 3 3 2 1 0 -1 -2 -7 -8 -3 5 8 8
7 7 8 8 7 6 5 5 5 5 5 4 4 4 3 3 3 3 2 2 1 -1 -4 -6 -8 -6 -1 2 2 2 3 2 3 3 1 1 0 -2 -6 -7 -3 6 7
7 7 7 8 7 6 6 5 5 4 4 4 3 3 3 2 2 2 2 1 1 1 -4 -7 -8 -9 -10 -9 -8 -4 0 2 1 4 4 1 1 1 -0 -6 -7 -3 6
6 7 7 7 6 6 5 4 3 3 2 2 2 2 1 0 -0 -1 -0 1 -1 -1 -1 -4 -8 -7 -6 -5 -5 -5 -6 -4 -2 1 4 3 1 2 2 0 -4 -7 -2
2 2 2 2 2 2 2 2 2 2 1 0 -1 -4 -5 -4 -6 -6 -2 0 -0 -3 -2 -2 -7 -5 -6 -6 -5 -4 -2 -2 -0 -2 -0 4 3 2 3 3 1 -3 -8
-2 -2 -2 -2 0 2 2 0 -0 -1 -1 -3 -3 -6 -4 -5 -5 -3 -2 -1 -1 -1 -3 -4 -5 -5 -7 -12 -15 -14 -9 -4 -2 -3 -1 0 3 3 3 3 3 1 -2
-0 -1 0 0 0 2 -2 -2 -3 -4 -4 -3 -2 -6 -6 -5 0 -1 -2 -3 -2 -2 -3 -3 -4 -4 -4 -3 -4 -11 -15 -16 -15 -9 -3 -1 1 2 4 4 4 4 2
-0 -0 0 1 -2 -1 -1 -2 -3 -4 -5 -5 -2 -3 -8 -8 -8 -2 -2 -2 -2 -2 -4 -4 -3 -3 -4 -3 -3 -6 -8 -10 -11 -12 -12 -11 -2 -0 2 4 5 5 4
0 1 -2 -5 -5 -5 -4 -3 -3 -3 -4 -5 -4 -3 -4 -6 -5 -6 -5 -5 -4 -4 -4 -4 -4 -3 -4 -3 -3 -3 -4 -9 -9 -9 -9 -9 -11 -9 -3 0 3 5 5
-2 -4 -8 -11 -6 -4 -3 -4 -5 -3 -3 -5 -6 -5 -4 -4 -3 -5 -6 -8 -7 -7 -6 -5 -5 -4 -4 -4 -4 -4 -5 -8 -10 -10 -10 -9 -9 -9 -11 -7 -1 4 5
-6 -11 -10 -6 -2 -2 -3 -2 -2 -2 -3 -4 -5 -5 -5 -5 -6 -5 -4 -7 -8 -7 -7 -7 -6 -5 -5 -5 -5 -5 -6 -9 -10 -11 -11 -11 -11 -10 -10 -9 -6 -2 4
-3 -3 -3 -2 -1 -2 -1 -2 -2 -2 -3 -3 -4 -3 -3 -2 -3 -3 -3 -4 -5 -7 -7 -7 -4 -4 -5 -6 -6 -7 -6 -8 -10 -11 -14 -14 -14 -13 -12 -11 -9 -6 -0
-5 -4 -3 -2 -3 -3 -1 -1 -2 -3 -3 -3 -3 -4 -3 -4 -4 -5 -4 -6 -7 -8 -8 -8 -8 -7 -6 -7 -9 -9 -7 -8 -11 -11 -13 -16 -18 -16 -15 -13 -13 -9 -3
-3 -3 -2 -2 -1 -2 -2 -2 -2 -3 -3 -3 -3 -3 -4 -5 -5 -5 -5 -6 -7 -9 -11 -12 -12 -11 -8 -8 -8 -10 -9 -9 -9 -8 -11 -15 -17 -17 -16 -16 -14 -12 -7
-2 -2 -1 -1 -2 -2 -2 -2 -2 -3 -3 -3 -4 -3 -4 -7 -7 -8 -8 -9 -9 -8 -11 -12 -13 -13 -12 -12 -11 -10 -10 -9 -9 -10 -12 -13 -12 -16 -15 -16 -15 -13 -7
-4 -4 -4 -4 -4 -3 -3 -3 -3 -4 -4 -4 -4 -6 -6 -8 -9 -9 -10 -11 -11 -11 -12 -13 -13 -13 -12 -12 -12 -10 -10 -9 -9 -9 -10 -11 -11 -15 -16 -15 -16 -14 -10
-8 -8 -8 -6 -5 -5 -3 -3 -3 -4 -4 -4 -6 -6 -8 -8 -9 -10 -10 -11 -11 -12 -12 -13 -13 -13 -12 -12 -11 -9 -8 -10 -10 -10 -9 -9 -10 -14 -14 -15 -15 -15 -13
-7 -7 -6 -4 -4 -4 -3 -4 -5 -4 -4 -5 -6 -7 -8 -9 -9 -10 -11 -11 -11 -11 -11 -12 -12 -12 -12 -12 -12 -11 -10 -10 -10 -11 -9 -9 -10 -12 -13 -14 -15 -14 -14
-6 -5 -4 -4 -4 -3 -3 -4 -4 -5 -6 -6 -7 -7 -8 -9 -10 -10 -10 -10 -11 -11 -11 -10 -11 -11 -12 -12 -12 -11 -10 -10 -10 -10 -9 -11 -11 -11 -12 -14 -13 -14 -13
-5 -4 -4 -4 -6 -6 -7 -7 -5 -5 -5 -6 -7 -7 -9 -9 -9 -10 -10 -11 -12 -12 -11 -10 -10 -11 -12 -12 -11 -11 -12 -11 -10 -10 -9 -9 -10 -11 -12 -14 -15 -13 -10
-4 -4 -4 -5 -7 -6 -5 -5 -5 -6 -7 -7 -8 -9 -11 -11 -14 -15 -11 -11 -11 -11 -11 -11 -12 -11 -12 -11 -11 -12 -12 -11 -11 -10 -9 -9 -10 -10 -10 -10 -10 -14 -9
-5 -4 -4 -4 -5 -5 -8 -9 -9 -7 -8 -9 -10 -11 -12 -13 -12 -12 -11 -12 -12 -11 -11 -11 -11 -10 -11 -11 -11 -10 -10 -11 -10 -10 -9 -8 -9 -8 -9 -9 -9 -9 -7
-4 -4 -4 -4 -5 -5 -8 -8 -8 -9 -9 -10 -10 -11 -12 -13 -11 -11 -11 -12 -11 -10 -11 -11 -11 -11 -10 -10 -10 -10 -11 -11 -10 -10 -9 -8 -9 -9 -8 -9 -9 -10 -8
-4 -5 -5 -5 -5 -6 -8 -8 -9 -9 -9 -9 -10 -10 -11 -11 -11 -12 -12 -11 -11 -11 -11 -11 -11 -11 -10 -11 -10 -10 -10 -9 -10 -10 -10 -10 -10 -9 -9 -8 -8 -10 -13
-5 -6 -5 -6 -6 -6 -8 -9 -10 -9 -9 -9 -10 -10 -11 -11 -11 -13 -13 -12 -11 -11 -12 -11 -12 -12 -12 -12 -11 -10 -10 -9 -9 -9 -10 -9 -9 -9 -9 -8 -9 -8 -12
-5 -6 -6 -6 -7 -7 -8 -10 -11 -10 -10 -10 -10 -11 -11 -12 -16 -13 -13 -13 -12 -12 -12 -12 -12 -11 -11 -10 -10 -10 -9 -9 -10 -9 -11 -9 -9 -10 -9 -9 -8 -7 -9

GFSMA_850_dewp_051.txt.gz
Dewpoint
9 9 9 8 5 8 8 8 8 7 7 6 6 6 5 5 5 4 4 4 3 2 1 -0 -2 -5 -7 -6 -2 1 3 3 4 4 4 3 0 -2 -4 -8 -7 3 8
8 8 7 9 9 8 7 7 7 6 6 5 5 5 5 4 4 4 3 3 3 2 1 -0 -4 -6 -7 -8 -9 -7 -4 -1 1 3 3 3 4 1 -1 -3 -7 -7 2
7 7 8 8 8 7 7 6 6 5 5 4 4 3 3 3 2 2 2 1 1 1 0 -1 -4 -7 -7 -7 -7 -8 -8 -6 -4 -3 -0 2 4 4 3 0 -2 -7 -5
5 5 4 4 4 3 3 4 4 3 3 2 1 1 -0 -2 -3 -2 -3 -5 -0 0 -1 -1 -1 -5 -7 -6 -6 -5 -5 -4 -3 1 1 -1 3 6 4 4 2 -1 -6
-2 -2 1 2 1 3 3 4 3 2 1 -0 -2 -3 -3 -4 -3 -4 -4 -3 -0 1 0 -1 -2 -7 -5 -6 -8 -11 -12 -10 -7 -1 -1 3 2 1 5 4 4 2 0
1 3 4 4 3 3 3 3 2 -0 -2 -3 -4 -3 -3 -4 -5 -4 -1 -1 -1 -1 -1 -2 -2 -3 -4 -4 -4 -6 -10 -12 -14 -12 -10 -4 -1 1 -0 3 5 5 3
4 4 3 3 3 1 2 1 -1 -2 -3 -4 -4 -5 -4 -5 -7 -3 -3 -2 -2 -2 -2 -3 -3 -3 -4 -4 -3 -2 -3 -6 -9 -8 -10 -13 -13 -1 1 -0 2 5 6
1 2 0 2 2 1 -1 -2 -1 -2 -4 -5 -5 -6 -5 -6 -8 -4 -3 -3 -3 -4 -4 -4 -4 -4 -4 -4 -4 -4 -3 -3 -5 -10 -10 -8 -6 -8 -11 -7 -1 2 5
0 -1 0 1 -0 -2 -3 -2 -2 -3 -4 -5 -5 -6 -6 -6 -6 -6 -6 -6 -5 -5 -6 -6 -6 -6 -5 -4 -4 -5 -3 -4 -6 -8 -9 -10 -7 -3 -3 -5 -7 1 3
3 1 0 -1 -1 -1 -1 -2 -3 -2 -3 -4 -5 -6 -6 -6 -5 -5 -5 -6 -7 -8 -7 -6 -6 -6 -5 -5 -4 -4 -6 -3 -4 -7 -10 -7 -9 -7 -6 -5 -4 -2 0
1 0 -1 -2 -1 -1 -2 -2 -2 -2 -3 -4 -4 -4 -4 -4 -4 -3 -4 -5 -4 -5 -6 -7 -7 -5 -6 -5 -5 -4 -3 -6 -7 -8 -9 -7 -7 -6 -9 -9 -7 -5 -1
-4 -4 -3 -2 -2 -2 -2 -2 -3 -2 -2 -3 -3 -3 -3 -2 -3 -3 -3 -4 -5 -7 -8 -8 -8 -9 -6 -5 -6 -9 -6 -6 -8 -8 -9 -9 -6 -7 -9 -11 -12 -10 -7
-5 -4 -3 -3 -3 -3 -3 -2 -1 -2 -2 -2 -2 -2 -2 -3 -4 -4 -4 -4 -6 -7 -8 -9 -10 -11 -11 -9 -5 -7 -8 -9 -10 -10 -10 -6 -6 -7 -7 -14 -14 -15 -15
-3 -2 -2 -3 -3 -3 -3 -2 -2 -1 -1 -3 -2 -2 -2 -3 -4 -5 -6 -7 -7 -9 -10 -10 -11 -12 -12 -12 -12 -11 -9 -8 -9 -10 -11 -9 -7 -9 -10 -10 -17 -18 -18
-4 -5 -4 -4 -4 -5 -5 -4 -3 -2 -2 -3 -3 -3 -4 -4 -5 -7 -8 -8 -8 -8 -10 -12 -13 -13 -13 -13 -13 -13 -12 -11 -11 -11 -12 -12 -12 -11 -11 -12 -16 -22 -21
-6 -7 -7 -7 -7 -6 -6 -6 -4 -3 -2 -3 -3 -4 -4 -6 -6 -7 -8 -8 -10 -11 -11 -13 -13 -13 -13 -13 -13 -13 -12 -11 -10 -9 -9 -9 -9 -9 -9 -10 -16 -20 -21
-7 -7 -7 -7 -6 -5 -6 -5 -4 -3 -4 -4 -5 -4 -5 -6 -7 -7 -8 -9 -11 -12 -11 -11 -12 -12 -12 -12 -12 -11 -11 -10 -10 -11 -11 -10 -8 -7 -8 -10 -13 -18 -19
-6 -6 -6 -6 -5 -6 -6 -5 -4 -4 -4 -4 -4 -4 -5 -6 -7 -8 -10 -11 -11 -11 -11 -11 -11 -12 -12 -11 -11 -11 -11 -11 -10 -11 -11 -9 -8 -8 -9 -9 -12 -17 -19
-6 -5 -5 -5 -5 -4 -3 -6 -4 -4 -5 -5 -5 -5 -6 -6 -8 -10 -10 -10 -11 -12 -12 -12 -12 -11 -10 -10 -11 -11 -11 -10 -11 -11 -11 -11 -10 -9 -9 -10 -13 -17 -18
-5 -5 -5 -5 -4 -5 -4 -4 -5 -5 -5 -5 -5 -6 -7 -10 -10 -9 -10 -11 -11 -11 -12 -12 -12 -12 -11 -11 -11 -11 -10 -10 -10 -10 -10 -10 -9 -9 -11 -12 -12 -15 -17
-5 -6 -5 -5 -4 -5 -4 -5 -5 -5 -6 -6 -7 -10 -11 -11 -11 -13 -12 -11 -10 -11 -11 -12 -12 -11 -11 -11 -10 -9 -10 -10 -10 -10 -11 -11 -10 -9 -8 -8 -8 -10 -11
-6 -5 -4 -5 -4 -4 -5 -6 -9 -7 -7 -8 -10 -10 -11 -11 -12 -12 -11 -10 -11 -11 -11 -11 -11 -10 -10 -11 -10 -9 -9 -9 -9 -12 -9 -10 -9 -8 -8 -8 -7 -7 -9
-6 -4 -5 -5 -5 -4 -5 -6 -9 -8 -8 -9 -10 -10 -11 -12 -11 -11 -10 -12 -11 -11 -11 -11 -11 -10 -10 -9 -10 -10 -10 -10 -9 -10 -9 -10 -11 -10 -10 -9 -8 -7 -9
-6 -5 -5 -4 -7 -5 -5 -7 -8 -9 -9 -9 -9 -10 -10 -11 -11 -11 -12 -12 -11 -11 -11 -11 -11 -11 -10 -11 -11 -11 -11 -11 -11 -11 -11 -9 -11 -11 -10 -10 -11 -9 -10
-6 -6 -5 -5 -5 -5 -6 -8 -9 -9 -8 -8 -9 -10 -10 -11 -11 -13 -19 -12 -12 -11 -11 -11 -11 -12 -13 -13 -12 -11 -11 -9 -9 -10 -10 -9 -11 -10 -10 -10 -10 -9 -9
-7 -5 -6 -5 -5 -6 -6 -8 -9 -12 -9 -9 -9 -10 -10 -10 -11 -14 -24 -13 -12 -12 -12 -12 -12 -12 -11 -11 -10 -10 -10 -9 -9 -9 -9 -8 -9 -8 -8 -9 -10 -10 -9

GFSMA_850_dewp_057.txt.gz
Dewpoint
8 9 8 7 8 8 7 8 8 7 7 6 6 5 4 4 3 3 3 3 2 1 1 -1 1 0 -1 -2 -4 -5 -4 -4 -0 4 3 4 5 5 5 4 1 -1 -5
7 7 7 7 8 7 7 6 5 2 2 2 1 2 3 3 2 1 1 -0 -3 -2 -3 -1 1 0 -1 -2 -2 -5 -7 -3 1 4 5 4 4 6 5 5 4 3 0
6 6 7 7 6 2 -3 -3 -2 -2 -2 -4 -5 -5 -3 -3 -3 -4 -7 -3 -3 -4 -3 -1 0 0 -1 -2 -4 -6 -7 -4 2 1 3 3 3 4 4 6 6 5 4
3 2 -2 -3 -2 -2 -3 -2 -2 -5 -7 -9 -10 -10 -7 -6 -9 -10 -7 -5 -5 -3 -1 0 -0 -0 -1 -2 -4 -1 -1 1 -0 1 2 2 1 2 3 2 3 6 6
-2 -1 -1 0 0 1 -0 -1 -3 -6 -8 -10 -11 -9 -11 -10 -10 -9 -5 -4 -5 0 0 -0 -1 -2 -2 -3 -2 -2 -4 0 -0 -1 -1 -2 -1 -0 -1 1 -3 -1 5
-0 0 1 2 2 1 1 -3 -6 -8 -7 -6 -6 -6 -8 -9 -7 -5 -5 -4 -4 -3 -1 -2 -2 -3 -3 -4 -4 -4 -1 -1 -4 -4 -1 -1 -2 -3 -1 -1 -1 -5 -5
1 1 1 1 0 -0 -2 -7 -6 -6 -7 -8 -7 -8 -8 -6 -9 -7 -5 -6 -6 -6 -5 -6 -4 -5 -5 -5 -4 -2 -1 -2 -2 -4 -4 -7 -2 -4 -2 -2 -1 -1 -6
1 2 2 1 -0 -3 -8 -9 -8 -8 -7 -4 -3 -6 -5 -6 -5 -6 -7 -7 -7 -6 -6 -6 -6 -4 -5 -5 -5 -5 -6 -5 -5 -6 -8 -9 -8 -4 -3 -3 -3 -2 -1
3 3 2 -0 -4 -6 -7 -8 -6 -4 -2 -2 -3 -3 -3 -3 -4 -5 -6 -6 -6 -6 -6 -6 -6 -7 -7 -6 -7 -7 -9 -9 -8 -6 -6 -5 -6 -5 -4 -4 -4 -4 -2
4 2 -1 -4 -5 -5 -3 -2 -2 -2 -2 -2 -1 -2 -3 -3 -3 -3 -4 -5 -6 -7 -8 -7 -7 -7 -7 -8 -10 -11 -10 -6 -5 -5 -6 -6 -5 -5 -5 -5 -5 -4 -4
0 -1 -2 -4 -2 -2 -1 -2 -2 -2 -3 -2 -2 -2 -4 -2 -2 -3 -3 -3 -5 -6 -8 -9 -10 -9 -10 -10 -10 -10 -6 -6 -8 -6 -7 -6 -6 -6 -5 -6 -6 -5 -5
-1 -2 -4 -3 -2 -2 -2 -2 -3 -4 -3 -3 -3 -2 -5 -1 -1 -2 -3 -3 -4 -5 -7 -8 -9 -12 -12 -11 -10 -11 -11 -10 -11 -10 -10 -6 -7 -6 -6 -6 -6 -7 -6
-1 -1 -3 -3 -3 -3 -3 -5 -3 -3 -4 -4 -4 -3 -3 -2 -2 -2 -2 -3 -3 -6 -7 -7 -10 -11 -11 -12 -11 -12 -12 -12 -11 -11 -11 -10 -9 -8 -8 -7 -8 -8 -8
-0 -2 -4 -3 -3 -6 -6 -10 -8 -7 -6 -5 -2 -2 -3 -3 -2 -2 -3 -3 -4 -6 -7 -8 -10 -10 -10 -11 -12 -12 -12 -12 -13 -12 -11 -10 -11 -9 -8 -8 -8 -8 -8
-3 -3 -2 -6 -11 -12 -10 -9 -7 -6 -6 -5 -4 -4 -4 -4 -3 -3 -3 -4 -5 -6 -7 -8 -10 -10 -10 -10 -10 -11 -11 -13 -14 -14 -13 -12 -12 -10 -9 -8 -8 -8 -8
-4 -5 -8 -9 -8 -10 -7 -6 -6 -5 -4 -4 -4 -5 -4 -4 -4 -4 -4 -4 -5 -6 -7 -8 -8 -9 -10 -10 -10 -11 -11 -11 -11 -13 -14 -14 -12 -11 -11 -11 -12 -9 -8
-6 -7 -7 -7 -7 -7 -6 -5 -5 -5 -4 -4 -4 -4 -5 -6 -4 -4 -4 -5 -6 -8 -8 -9 -9 -10 -10 -11 -12 -11 -11 -12 -12 -14 -14 -12 -13 -13 -12 -11 -11 -12 -11
-7 -7 -7 -6 -8 -6 -5 -5 -5 -8 -10 -8 -7 -6 -5 -5 -6 -6 -6 -7 -8 -9 -10 -11 -12 -16 -16 -14 -12 -12 -12 -13 -14 -13 -12 -11 -11 -9 -10 -9 -9 -10 -10
-7 -8 -7 -7 -6 -5 -5 -5 -5 -8 -7 -9 -8 -8 -6 -6 -6 -7 -9 -10 -10 -11 -13 -14 -14 -15 -15 -15 -13 -14 -14 -13 -12 -12 -11 -12 -13 -13 -13 -12 -11 -11 -10
-7 -6 -6 -7 -5 -5 -5 -5 -6 -6 -7 -7 -7 -6 -6 -7 -9 -10 -10 -11 -12 -13 -13 -12 -13 -15 -13 -13 -13 -12 -14 -14 -13 -12 -12 -13 -13 -13 -13 -13 -14 -12 -11
-9 -7 -6 -6 -5 -5 -5 -6 -6 -5 -5 -6 -6 -6 -7 -9 -9 -10 -12 -11 -11 -11 -11 -13 -17 -13 -12 -13 -12 -11 -10 -11 -13 -14 -15 -16 -15 -16 -16 -15 -13 -12 -10
-9 -8 -6 -6 -5 -5 -5 -8 -7 -6 -6 -5 -6 -8 -9 -9 -10 -11 -11 -10 -10 -12 -14 -19 -15 -12 -12 -12 -10 -11 -12 -13 -14 -16 -13 -15 -13 -12 -13 -15 -14 -14 -13
-7 -6 -5 -5 -6 -5 -6 -9 -7 -7 -6 -6 -8 -10 -9 -9 -9 -10 -10 -10 -11 -14 -18 -19 -13 -12 -11 -11 -12 -12 -13 -13 -13 -14 -12 -12 -11 -10 -10 -11 -12 -13 -12
-6 -6 -6 -5 -6 -6 -6 -8 -5 -6 -6 -8 -9 -11 -10 -9 -9 -10 -10 -12 -12 -15 -21 -16 -12 -12 -13 -14 -12 -11 -12 -11 -12 -12 -10 -10 -12 -12 -12 -11 -13 -12 -12
-8 -9 -10 -6 -6 -6 -6 -8 -6 -6 -7 -7 -8 -10 -12 -11 -10 -10 -11 -11 -14 -19 -19 -18 -20 -14 -14 -13 -12 -11 -11 -11 -11 -12 -12 -11 -13 -12 -12 -12 -11 -10 -11
-7 -6 -6 -6 -6 -6 -8 -7 -6 -6 -7 -8 -9 -11 -13 -11 -11 -10 -11 -13 -17 -19 -17 -16 -16 -18 -15 -13 -13 -12 -12 -11 -11 -11 -12 -10 -11 -10 -9 -9 -10 -10 -10